Regional Weather Roundup
Issued by NWS Upton, NY

Current Version | Previous Version | Text Only | Print | Product List | Glossary On
Versions: 1 2 3 4 5 6 7 8 9 10 11 12 13 14 15 16 17 18 19 20 21 22 23 24 25 26 27 28 29 30 31 32 33 34 35 36 37 38 39 40 41 42 43 44 45 46 47 48 49 50
425 ASUS41 KOKX 160608 RWROKX REGIONAL WEATHER ROUNDUP NATIONAL WEATHER SERVICE NEW YORK NY 100 AM EST SAT DEC 16 2017 NOTE: "FAIR" INDICATES FEW OR NO CLOUDS BELOW 12,000 FEET WITH NO SIGNIFICANT WEATHER AND/OR OBSTRUCTIONS TO VISIBILITY. NYZ071-072-176-178-NJZ106-104-160700- NEW YORK CITY METRO AREA CITY SKY/WX TMP DP RH WIND PRES REMARKS Central Park CLEAR 23 18 81 VRB3 29.92R Bronx Bot Gard N/A 25 19 80 SW7 29.89S WCI 17 Bronx Lehman C N/A 25 19 80 W5 N/A WCI 19 LaGuardia APRT PTCLDY 26 18 71 W14G20 29.91R WCI 14 Queens College N/A 27 19 74 W12 N/A WCI 16 Kennedy INTL PTCLDY 24 20 84 W14 29.93S WCI 12 Breezy Point N/A N/A N/A N/A W13G20 N/A Brooklyn Coll N/A 27 21 80 W9 N/A WCI 17 Staten Island N/A 21 19 93 W6 N/A WCI 14 Newark/Liberty PTCLDY 21 18 88 W8 29.92S WCI 11 Teterboro CLEAR 21 17 84 SW5 29.91R WCI 15 $$ NYZ177-179-078>081-160700- LONG ISLAND NEW YORK CITY SKY/WX TMP DP RH WIND PRES REMARKS Jones Beach N/A N/A N/A N/A W13G18 N/A Wantagh N/A 25 19 80 SW7 N/A WCI 17 Matinecock PT N/A N/A N/A N/A W23 N/A Farmingdale CLEAR 21 17 84 W5 29.91R WCI 15 MacArthur/ISP CLEAR 20 17 88 W8 29.89S WCI 10 Shirley CLEAR 22 19 89 W8 29.89S WCI 12 Mt Sinai Harb N/A N/A N/A N/A W8G14 N/A Westhampton CLEAR 21 17 84 W8 29.89R WCI 11 East Hampton FAIR 26 20 78 NW10 29.85S WCI 16 Southold N/A 28 21 74 NW12 N/A WCI 18 Montauk N/A 30 22 72 W15G24 29.84R WCI 19 $$ NYZ052-065-067-160700- HUDSON VALLEY CITY SKY/WX TMP DP RH WIND PRES REMARKS White Plains CLEAR 19 16 88 W3 29.86S Larchmont Harb N/A N/A N/A N/A SW12 N/A Croton On Huds N/A N/A N/A N/A S3 N/A Somers N/A 18 16 93 W3 N/A Brewster N/A 18 16 93 S1 N/A Newburgh MOCLDY 18 16 93 W9 29.87S WCI 6 Montgomery CLEAR 12 9 87 S5 29.86S FOG WCI 4 Otisville N/A 18 16 93 SW1 N/A Warwick N/A 19 18 93 W6 N/A WCI 11 Suffern N/A 21 16 79 W5 N/A WCI 15 Poughkeepsie PTCLDY 18 14 84 SW3 29.88S Albany FLURRIES 20 15 81 S6 29.83F WCI 12 $$ NJZ001-105-106-008-010-013-015-019>022-104-160700- NEW JERSEY CITY SKY/WX TMP DP RH WIND PRES REMARKS Newark/Liberty PTCLDY 21 18 88 W8 29.92S WCI 11 Teterboro CLEAR 21 17 84 SW5 29.91R WCI 15 Caldwell CLEAR 18 16 92 SW3 29.91S Somerville CLEAR 11 8 88 CALM 29.92S Linden FAIR 20 17 88 W6 29.93R WCI 13 Perth Amboy N/A N/A N/A N/A W9 N/A Sussex CLEAR 11 11 100 CALM 29.87S FOG Andover NOT AVBL Trenton CLEAR 21 18 88 W6 29.94S FOG WCI 13 Millville PTCLDY 11 9 92 W3 30.00R Atlantic City CLEAR 22 20 92 W10 29.98S WCI 11 Wrightstown CLEAR 18 15 91 SW7 29.93R WCI 8 Toms River CLEAR 16 14 92 SW7 29.96S WCI 6 Belmar CLEAR 19 17 92 SW9 29.94S WCI 8 $$ PAZ047>061-062-071-160700- EASTERN PENNSYLVANIA CITY SKY/WX TMP DP RH WIND PRES REMARKS Philadelphia CLEAR 21 17 84 W9 30.00R WCI 11 Allentown CLEAR 16 12 84 SW6 29.93S FOG WCI 7 Scranton PTCLDY 18 15 88 SW3 29.87R FOG $$ CTZ002-004>006-009-010-012-RIZ004-006-007-MAZ004-011-015-160700- SOUTHERN NEW ENGLAND IN CT CITY SKY/WX TMP DP RH WIND PRES REMARKS Bradley INTL CLOUDY 21 16 81 W6 29.83F WCI 13 Hartford MOCLDY 23 16 74 W3 29.86S Danbury CLEAR 13 10 88 SW5 29.86F WCI 5 Wtrbury/Oxford CLEAR 17 15 92 W5 29.82F WCI 10 Norwalk Harbor N/A N/A N/A N/A W9 N/A Bridgeport PTCLDY 23 18 81 W10 29.88S WCI 12 Meriden MOCLDY 20 16 84 W3 29.86S New Haven CLOUDY 24 19 81 W6 29.87S WCI 17 Chester FAIR 21 18 86 W5G12 29.83R WCI 15 Groton PTCLDY 23 18 81 W8 29.84S WCI 14 Wilimantic CLOUDY 21 17 84 CALM 29.83S IN RI CITY SKY/WX TMP DP RH WIND PRES REMARKS Providence CLOUDY 23 19 85 W7 29.81F WCI 15 Block Island FLURRIES 27 24 89 W14G24 29.82S WCI 16 Westerly PTCLDY 22 20 92 W5 29.84S WCI 16 IN MA CITY SKY/WX TMP DP RH WIND PRES REMARKS Boston CLOUDY 24 17 74 W12 29.79F WCI 13 Worcester CLOUDY 18 14 84 W15 29.74S WCI 4 Westfield CLOUDY 22 16 78 W6 29.82F WCI 14 Provincetown LGT SNOW 27 25 92 MISG 29.78F FOG Nantucket LGT SNOW 30 30 100 NW20 29.76S FOG WCI 17 $$ ANZ330-335-338-340-345-350-353-355-160700- COASTAL MARINE OBSERVATIONS STATION/POSITION TIME SKY/WX TEMP WIND PRES VSBY WAVE AIR SEA DIR/SP/G HT/PER (UTC) (F) (DEG/KT/KT) (MB) (MI) (FT/S) NY HARB ENTRANCE 0450 29 50 280/ 17/ 23 1012.6 3/ 4 20 S FIRE ISLAND 0450 33 51 290/ 23/ 27 1012.1 5/ 5 GREAT SOUTH BAY NOT AVBL HUDSON CANYON 0450 37 56 300/ 27/ 33 1011.2 6/ 6 KINGS POINT 0548 26 42 320/ 13/ 17 1013.5 EXECUTION ROCKS 0530 27 240/ 14/ 19 N/A WESTERN LI SOUND NOT AVBL CENTRAL LI SOUND 0515 30 270/ 21/ 27 N/A 3 ROBBINS REEF 0548 24 260/ 17/ 20 1013.5 $$ >>>>>>>>>>>>>>>>>>>>>>>>>>>> KEY <<<<<<<<<<<<<<<<<<<<<<<<<<< > < > SKY/WX - Sky Condition/Present Weather < > TMP - Temperature in Fahrenheit < > DP - Dew Point in Fahrenheit < > RH - Relative Humidity in Percent < > WIND - Direction (from) and Speed in MPH < > PRES - Mean Sea Level Pressure (inches of Hg) < > WCI - Wind Chill Index < > VSB - VISIBILITY IN MILES < > HX - HEAT INDEX < > TC - TEMPERATURE IN CELSIUS < > VRB - VARIABLE WIND DIRECTION < > < >>>>>>>>>>>>>>>>>>>>>>>>>>>> KEY <<<<<<<<<<<<<<<<<<<<<<<<<<<

USA.gov is the U.S. government's official web portal to all federal, state and local government web resources and services.